| time (UTC) | temp F | wind direction | speed MPH | gust MPH | rain 1hr in | rain 24hr in | rain mn in | humidity % | barometer mb |
| 20260504174011 | 76 | 263 | 3.0 | 6.0 | 0.00 | 0.00 | 0.00 | 32 | 999.4 |
| 20260504173508 | 76 | 346 | 4.0 | 5.0 | 0.00 | 0.00 | 0.00 | 33 | 999.7 |
| 20260504173005 | 76 | 218 | 8.0 | 11.0 | 0.00 | 0.00 | 0.00 | 31 | 999.6 |
| 20260504172501 | 75 | 243 | 5.0 | 6.0 | 0.00 | 0.00 | 0.00 | 31 | 999.7 |
| 20260504171957 | 75 | 234 | 9.0 | 15.0 | 0.00 | 0.00 | 0.00 | 31 | 1000.0 |
| 20260504171455 | 75 | 231 | 8.0 | 15.0 | 0.00 | 0.00 | 0.00 | 30 | 999.9 |
| 20260504170951 | 74 | 272 | 4.0 | 6.0 | 0.00 | 0.00 | 0.00 | 31 | 999.8 |
| 20260504170448 | 75 | 231 | 7.0 | 15.0 | 0.00 | 0.00 | 0.00 | 30 | 1000.2 |
| 20260504160408 | 73 | 213 | 9.0 | 15.0 | 0.00 | 0.00 | 0.00 | 29 | 1001.0 |
| 20260504150832 | 71 | 130 | 5.0 | 7.0 | 0.00 | 0.00 | 0.00 | 36 | 1001.5 |
| 20260504150328 | 71 | 271 | 3.0 | 3.0 | 0.00 | 0.00 | 0.00 | 38 | 1001.7 |
| 20260504141258 | 66 | 113 | 4.0 | 5.0 | 0.00 | 0.00 | 0.00 | 47 | 1002.0 |
| 20260504140755 | 65 | 270 | 6.0 | 8.0 | 0.00 | 0.00 | 0.00 | 47 | 1002.3 |
| 20260504140250 | 65 | 174 | 4.0 | 6.0 | 0.00 | 0.00 | 0.00 | 47 | 1002.3 |
| 20260504130719 | 59 | 201 | 4.0 | 5.0 | 0.00 | 0.00 | 0.00 | 58 | 1003.1 |
| 20260504130215 | 59 | 63 | 1.0 | 1.0 | 0.00 | 0.00 | 0.00 | 58 | 1003.1 |
| 20260504120139 | 51 | 179 | 2.0 | 2.0 | 0.00 | 0.00 | 0.00 | 74 | 1003.2 |
| 20260504110606 | 45 | 103 | 0.0 | 0.0 | 0.00 | 0.00 | 0.00 | 87 | 1003.1 |
| 20260504100528 | 44 | 87 | 0.0 | 0.0 | 0.00 | 0.00 | 0.00 | 89 | 1003.0 |
| 20260504081922 | 48 | 86 | 0.0 | 0.0 | 0.00 | 0.00 | 0.00 | 84 | 1004.0 |
| 20260504081418 | 48 | 95 | 0.0 | 0.0 | 0.00 | 0.00 | 0.00 | 84 | 1004.1 |
| 20260504080914 | 48 | 60 | 0.0 | 0.0 | 0.00 | 0.00 | 0.00 | 84 | 1004.3 |
| 20260504080411 | 48 | 90 | 0.0 | 0.0 | 0.00 | 0.00 | 0.00 | 84 | 1004.3 |
| 20260504070339 | 49 | 85 | 0.0 | 0.0 | 0.00 | 0.00 | 0.00 | 83 | 1004.5 |
| 20260504050721 | 51 | 60 | 0.0 | 0.0 | 0.00 | 0.00 | 0.00 | 76 | 1005.3 |
| 20260504050218 | 51 | 83 | 0.0 | 0.0 | 0.00 | 0.00 | 0.00 | 76 | 1005.4 |
| 20260504045715 | 51 | 88 | 0.0 | 0.0 | 0.00 | 0.00 | 0.00 | 75 | 1005.3 |
| 20260504045210 | 52 | 88 | 0.0 | 0.0 | 0.00 | 0.00 | 0.00 | 75 | 1005.4 |
| 20260504044708 | 52 | 88 | 0.0 | 0.0 | 0.00 | 0.00 | 0.00 | 74 | 1005.2 |
| 20260504044205 | 52 | 88 | 0.0 | 0.0 | 0.00 | 0.00 | 0.00 | 74 | 1005.4 |
| 20260504043702 | 52 | 86 | 0.0 | 0.0 | 0.00 | 0.00 | 0.00 | 74 | 1005.4 |
| 20260504043159 | 52 | 85 | 0.0 | 0.0 | 0.00 | 0.00 | 0.00 | 74 | 1005.2 |
| 20260504042656 | 52 | 84 | 0.0 | 0.0 | 0.00 | 0.00 | 0.00 | 74 | 1005.2 |
| 20260504042153 | 52 | 83 | 0.0 | 0.0 | 0.00 | 0.00 | 0.00 | 73 | 1005.5 |
| 20260504041648 | 52 | 85 | 0.0 | 0.0 | 0.00 | 0.00 | 0.00 | 72 | 1005.3 |
| 20260504041144 | 53 | 85 | 0.0 | 0.0 | 0.00 | 0.00 | 0.00 | 72 | 1005.3 |
| 20260504040642 | 53 | 88 | 0.0 | 0.0 | 0.00 | 0.00 | 0.00 | 71 | 1005.5 |
| 20260504040139 | 53 | 96 | 0.0 | 0.0 | 0.00 | 0.00 | 0.00 | 70 | 1005.6 |
| 20260504035635 | 53 | 88 | 0.0 | 0.0 | 0.00 | 0.00 | 0.00 | 70 | 1005.5 |
| 20260504035132 | 54 | 90 | 0.0 | 0.0 | 0.00 | 0.00 | 0.00 | 68 | 1005.5 |
| 20260504034630 | 54 | 88 | 0.0 | 0.0 | 0.00 | 0.00 | 0.00 | 68 | 1005.5 |
| 20260504034127 | 54 | 87 | 0.0 | 0.0 | 0.00 | 0.00 | 0.00 | 69 | 1005.5 |
| 20260504033624 | 54 | 85 | 0.0 | 0.0 | 0.00 | 0.00 | 0.00 | 68 | 1005.9 |
| 20260504033122 | 54 | 85 | 0.0 | 0.0 | 0.00 | 0.00 | 0.00 | 68 | 1005.6 |
| 20260504032618 | 54 | 85 | 0.0 | 0.0 | 0.00 | 0.00 | 0.00 | 68 | 1005.7 |
| 20260504032115 | 55 | 84 | 0.0 | 0.0 | 0.00 | 0.00 | 0.00 | 67 | 1005.7 |
| 20260504031613 | 55 | 85 | 0.0 | 0.0 | 0.00 | 0.00 | 0.00 | 67 | 1005.8 |
| 20260504031108 | 55 | 92 | 0.0 | 0.0 | 0.00 | 0.00 | 0.00 | 67 | 1005.7 |
| 20260504030606 | 56 | 90 | 0.0 | 0.0 | 0.00 | 0.00 | 0.00 | 65 | 1005.8 |
| 20260504025559 | 56 | 89 | 0.0 | 0.0 | 0.00 | 0.00 | 0.00 | 65 | 1005.7 |
| 20260504025056 | 56 | 86 | 0.0 | 0.0 | 0.00 | 0.00 | 0.00 | 64 | 1005.5 |
| 20260504024553 | 56 | 85 | 0.0 | 0.0 | 0.00 | 0.00 | 0.00 | 65 | 1005.7 |
| 20260504024050 | 56 | 85 | 0.0 | 0.0 | 0.00 | 0.00 | 0.00 | 65 | 1005.6 |
| 20260504023546 | 56 | 88 | 0.0 | 0.0 | 0.00 | 0.00 | 0.00 | 65 | 1005.8 |
| 20260504023042 | 56 | 86 | 0.0 | 0.0 | 0.00 | 0.00 | 0.00 | 65 | 1005.6 |
| 20260504022538 | 57 | 85 | 0.0 | 0.0 | 0.00 | 0.00 | 0.00 | 64 | 1005.6 |
| 20260504022035 | 57 | 85 | 0.0 | 0.0 | 0.00 | 0.00 | 0.00 | 64 | 1005.6 |
| 20260504021532 | 57 | 88 | 0.0 | 0.0 | 0.00 | 0.00 | 0.00 | 64 | 1005.5 |
| 20260504021029 | 57 | 87 | 0.0 | 0.0 | 0.00 | 0.00 | 0.00 | 63 | 1005.7 |
| 20260504020526 | 57 | 84 | 0.0 | 0.0 | 0.00 | 0.00 | 0.00 | 63 | 1005.7 |
| 20260504020023 | 58 | 86 | 0.0 | 0.0 | 0.00 | 0.00 | 0.00 | 62 | 1005.5 |
| 20260504015519 | 58 | 87 | 0.0 | 0.0 | 0.00 | 0.00 | 0.00 | 61 | 1005.3 |
| 20260504015015 | 59 | 88 | 0.0 | 0.0 | 0.00 | 0.00 | 0.00 | 60 | 1005.5 |
| 20260504014511 | 59 | 58 | 0.0 | 0.0 | 0.00 | 0.00 | 0.00 | 60 | 1005.3 |
| 20260504014009 | 59 | 89 | 0.0 | 0.0 | 0.00 | 0.00 | 0.00 | 58 | 1005.5 |
| 20260504013507 | 60 | 58 | 0.0 | 0.0 | 0.00 | 0.00 | 0.00 | 57 | 1005.5 |
| 20260504013003 | 60 | 87 | 0.0 | 0.0 | 0.00 | 0.00 | 0.00 | 57 | 1005.5 |
| 20260504012501 | 60 | 89 | 0.0 | 0.0 | 0.00 | 0.00 | 0.00 | 56 | 1005.5 |
| 20260504011958 | 61 | 97 | 0.0 | 0.0 | 0.00 | 0.00 | 0.00 | 55 | 1005.7 |
| 20260504011454 | 62 | 97 | 0.0 | 0.0 | 0.00 | 0.00 | 0.00 | 54 | 1005.5 |
| 20260504010950 | 62 | 96 | 0.0 | 1.0 | 0.00 | 0.00 | 0.00 | 53 | 1005.5 |
| 20260504010447 | 62 | 94 | 0.0 | 0.0 | 0.00 | 0.00 | 0.00 | 53 | 1005.3 |
| 20260504005942 | 63 | 64 | 1.0 | 1.0 | 0.00 | 0.00 | 0.00 | 52 | 1005.3 |
| 20260504005440 | 63 | 127 | 0.0 | 0.0 | 0.00 | 0.00 | 0.00 | 51 | 1005.2 |
| 20260504004937 | 64 | 76 | 1.0 | 2.0 | 0.00 | 0.00 | 0.00 | 50 | 1005.4 |
| 20260504004434 | 64 | 159 | 2.0 | 2.0 | 0.00 | 0.00 | 0.00 | 49 | 1005.0 |
| 20260504003932 | 65 | 59 | 3.0 | 3.0 | 0.00 | 0.00 | 0.00 | 48 | 1005.2 |
| 20260504003427 | 65 | 95 | 2.0 | 2.0 | 0.00 | 0.00 | 0.00 | 48 | 1005.3 |
| 20260504002924 | 66 | 235 | 3.0 | 3.0 | 0.00 | 0.00 | 0.00 | 47 | 1005.1 |
| 20260504002421 | 66 | 186 | 2.0 | 2.0 | 0.00 | 0.00 | 0.00 | 47 | 1005.1 |
| 20260504001919 | 66 | 296 | 5.0 | 7.0 | 0.00 | 0.00 | 0.00 | 46 | 1005.1 |
| 20260504001416 | 66 | 288 | 4.0 | 7.0 | 0.00 | 0.00 | 0.00 | 46 | 1005.2 |
| 20260504000913 | 67 | 98 | 1.0 | 2.0 | 0.00 | 0.00 | 0.00 | 47 | 1005.1 |
| 20260504000410 | 67 | 212 | 2.0 | 5.0 | 0.00 | 0.00 | 0.00 | 46 | 1005.0 |
| 20260503235907 | 67 | 80 | 0.0 | 0.0 | 0.00 | 0.00 | 0.00 | 47 | 1005.3 |
| 20260503235405 | 67 | 263 | 3.0 | 5.0 | 0.00 | 0.00 | 0.00 | 46 | 1004.9 |
| 20260503234902 | 68 | 208 | 5.0 | 7.0 | 0.00 | 0.00 | 0.00 | 45 | 1004.8 |
| 20260503234400 | 68 | 222 | 2.0 | 5.0 | 0.00 | 0.00 | 0.00 | 45 | 1005.2 |
| 20260503233857 | 68 | 207 | 3.0 | 5.0 | 0.00 | 0.00 | 0.00 | 44 | 1004.9 |
| 20260503233354 | 68 | 323 | 3.0 | 3.0 | 0.00 | 0.00 | 0.00 | 45 | 1005.2 |
| 20260503232850 | 68 | 3 | 2.0 | 2.0 | 0.00 | 0.00 | 0.00 | 45 | 1005.2 |
| 20260503232347 | 68 | 241 | 4.0 | 5.0 | 0.00 | 0.00 | 0.00 | 44 | 1005.2 |
| 20260503231845 | 68 | 70 | 1.0 | 1.0 | 0.00 | 0.00 | 0.00 | 45 | 1005.2 |
| 20260503231342 | 68 | 120 | 3.0 | 6.0 | 0.00 | 0.00 | 0.00 | 44 | 1005.2 |
| 20260503230838 | 68 | 236 | 3.0 | 5.0 | 0.00 | 0.00 | 0.00 | 43 | 1005.4 |
| 20260503230335 | 68 | 337 | 3.0 | 3.0 | 0.00 | 0.00 | 0.00 | 44 | 1005.4 |
| 20260503225833 | 69 | 62 | 3.0 | 6.0 | 0.00 | 0.00 | 0.00 | 43 | 1005.3 |
| 20260503225328 | 68 | 208 | 3.0 | 6.0 | 0.00 | 0.00 | 0.00 | 44 | 1005.3 |
| 20260503224825 | 69 | 305 | 4.0 | 6.0 | 0.00 | 0.00 | 0.00 | 44 | 1005.5 |
| 20260503224322 | 69 | 145 | 2.0 | 2.0 | 0.00 | 0.00 | 0.00 | 43 | 1005.3 |
| 20260503223820 | 69 | 241 | 4.0 | 6.0 | 0.00 | 0.00 | 0.00 | 43 | 1005.5 |
| 20260503223317 | 69 | 314 | 2.0 | 2.0 | 0.00 | 0.00 | 0.00 | 45 | 1005.4 |
| 20260503222813 | 68 | 259 | 6.0 | 10.0 | 0.00 | 0.00 | 0.00 | 43 | 1005.6 |
| 20260503222312 | 68 | 260 | 5.0 | 9.0 | 0.00 | 0.00 | 0.00 | 44 | 1005.6 |
| 20260503221809 | 68 | 279 | 6.0 | 9.0 | 0.00 | 0.00 | 0.00 | 44 | 1005.7 |
| 20260503221308 | 68 | 233 | 5.0 | 8.0 | 0.00 | 0.00 | 0.00 | 44 | 1005.8 |
| 20260503220803 | 68 | 201 | 3.0 | 6.0 | 0.00 | 0.00 | 0.00 | 45 | 1005.6 |
| 20260503220300 | 68 | 201 | 5.0 | 15.0 | 0.00 | 0.00 | 0.00 | 44 | 1005.8 |
| 20260503215757 | 68 | 211 | 8.0 | 11.0 | 0.00 | 0.00 | 0.00 | 44 | 1005.5 |
| 20260503215254 | 68 | 253 | 6.0 | 9.0 | 0.00 | 0.00 | 0.00 | 44 | 1005.7 |
| 20260503214752 | 67 | 296 | 5.0 | 7.0 | 0.00 | 0.00 | 0.00 | 44 | 1005.9 |
| 20260503214249 | 67 | 120 | 6.0 | 9.0 | 0.00 | 0.00 | 0.00 | 44 | 1006.0 |
| 20260503213747 | 68 | 250 | 8.0 | 9.0 | 0.00 | 0.00 | 0.00 | 43 | 1006.0 |
| 20260503213244 | 68 | 162 | 5.0 | 6.0 | 0.00 | 0.00 | 0.00 | 43 | 1006.0 |
| 20260503212740 | 68 | 212 | 6.0 | 7.0 | 0.00 | 0.00 | 0.00 | 43 | 1006.1 |
| 20260503212238 | 68 | 114 | 3.0 | 3.0 | 0.00 | 0.00 | 0.00 | 44 | 1005.7 |
| 20260503211736 | 68 | 226 | 5.0 | 8.0 | 0.00 | 0.00 | 0.00 | 43 | 1006.1 |
| 20260503211232 | 68 | 304 | 6.0 | 7.0 | 0.00 | 0.00 | 0.00 | 45 | 1005.9 |
| 20260503210727 | 67 | 198 | 5.0 | 7.0 | 0.00 | 0.00 | 0.00 | 45 | 1006.3 |
| 20260503210225 | 67 | 234 | 6.0 | 8.0 | 0.00 | 0.00 | 0.00 | 44 | 1006.3 |
| 20260503205720 | 66 | 139 | 5.0 | 8.0 | 0.00 | 0.00 | 0.00 | 48 | 1006.3 |
| 20260503205216 | 65 | 236 | 2.0 | 2.0 | 0.00 | 0.00 | 0.00 | 49 | 1006.4 |
| 20260503204713 | 67 | 210 | 9.0 | 10.0 | 0.00 | 0.00 | 0.00 | 47 | 1006.3 |
| 20260503204211 | 66 | 173 | 4.0 | 6.0 | 0.00 | 0.00 | 0.00 | 50 | 1006.3 |
| 20260503203708 | 65 | 163 | 7.0 | 9.0 | 0.00 | 0.00 | 0.00 | 50 | 1006.7 |
| 20260503203205 | 65 | 251 | 9.0 | 11.0 | 0.00 | 0.00 | 0.00 | 49 | 1007.1 |
| 20260503202703 | 66 | 247 | 7.0 | 9.0 | 0.00 | 0.00 | 0.00 | 49 | 1006.8 |
| 20260503202200 | 65 | 161 | 2.0 | 2.0 | 0.00 | 0.00 | 0.00 | 51 | 1007.0 |
| 20260503201658 | 64 | 357 | 7.0 | 16.0 | 0.00 | 0.00 | 0.00 | 52 | 1007.3 |
| 20260503201155 | 64 | 170 | 5.0 | 7.0 | 0.00 | 0.00 | 0.00 | 50 | 1007.5 |
| 20260503200651 | 64 | 216 | 8.0 | 18.0 | 0.00 | 0.00 | 0.00 | 50 | 1007.5 |
| 20260503200148 | 64 | 195 | 4.0 | 5.0 | 0.00 | 0.00 | 0.00 | 49 | 1007.4 |
| 20260503195645 | 65 | 323 | 7.0 | 8.0 | 0.00 | 0.00 | 0.00 | 47 | 1007.6 |
| 20260503195142 | 65 | 26 | 5.0 | 10.0 | 0.00 | 0.00 | 0.00 | 47 | 1007.5 |
| 20260503194639 | 65 | 186 | 5.0 | 7.0 | 0.00 | 0.00 | 0.00 | 46 | 1007.7 |
| 20260503194134 | 65 | 0 | 7.0 | 11.0 | 0.00 | 0.00 | 0.00 | 46 | 1007.6 |
| 20260503193631 | 66 | 158 | 6.0 | 11.0 | 0.00 | 0.00 | 0.00 | 44 | 1007.6 |
| 20260503193127 | 65 | 352 | 7.0 | 10.0 | 0.00 | 0.00 | 0.00 | 44 | 1007.7 |
| 20260503192622 | 66 | 290 | 8.0 | 11.0 | 0.00 | 0.00 | 0.00 | 45 | 1007.6 |
| 20260503192118 | 66 | 229 | 4.0 | 6.0 | 0.00 | 0.00 | 0.00 | 44 | 1007.7 |
| 20260503191615 | 65 | 186 | 10.0 | 16.0 | 0.00 | 0.00 | 0.00 | 44 | 1007.7 |
| 20260503191112 | 66 | 206 | 4.0 | 6.0 | 0.00 | 0.00 | 0.00 | 47 | 1007.7 |
| 20260503190609 | 65 | 251 | 3.0 | 5.0 | 0.00 | 0.00 | 0.00 | 45 | 1007.9 |
| 20260503190106 | 66 | 178 | 8.0 | 14.0 | 0.00 | 0.00 | 0.00 | 44 | 1007.9 |
| 20260503185603 | 66 | 158 | 8.0 | 11.0 | 0.00 | 0.00 | 0.00 | 43 | 1007.8 |
| 20260503185103 | 65 | 201 | 3.0 | 3.0 | 0.00 | 0.00 | 0.00 | 46 | 1007.8 |
| 20260503184558 | 64 | 130 | 10.0 | 13.0 | 0.00 | 0.00 | 0.00 | 43 | 1008.0 |
| 20260503184055 | 65 | 140 | 5.0 | 6.0 | 0.00 | 0.00 | 0.00 | 46 | 1008.2 |
| 20260503183552 | 64 | 253 | 5.0 | 8.0 | 0.00 | 0.00 | 0.00 | 46 | 1008.2 |
| 20260503183049 | 64 | 117 | 4.0 | 6.0 | 0.00 | 0.00 | 0.00 | 47 | 1008.2 |
| 20260503182547 | 64 | 252 | 4.0 | 6.0 | 0.00 | 0.00 | 0.00 | 49 | 1008.5 |
| 20260503182045 | 63 | 160 | 7.0 | 13.0 | 0.00 | 0.00 | 0.00 | 52 | 1008.4 |
| 20260503181542 | 62 | 324 | 5.0 | 7.0 | 0.00 | 0.00 | 0.00 | 52 | 1008.5 |
| 20260503181038 | 62 | 204 | 7.0 | 8.0 | 0.00 | 0.00 | 0.00 | 53 | 1008.8 |
| 20260503180535 | 63 | 207 | 6.0 | 10.0 | 0.00 | 0.00 | 0.00 | 53 | 1008.7 |
| 20260503180033 | 61 | 194 | 4.0 | 7.0 | 0.00 | 0.00 | 0.00 | 54 | 1008.9 |
| 20260503175530 | 61 | 253 | 5.0 | 9.0 | 0.00 | 0.00 | 0.00 | 55 | 1009.3 |
| 20260503175027 | 61 | 224 | 3.0 | 3.0 | 0.00 | 0.00 | 0.00 | 57 | 1009.2 |
| 20260503174524 | 61 | 198 | 7.0 | 9.0 | 0.00 | 0.00 | 0.00 | 56 | 1009.3 |